Regional Weather Roundup
Issued by NWS

Home | Current Version | Previous Version | Graphics & Text | Print | Product List | Glossary On
Versions: 1 2 3 4 5 6 7 8 9 10 11 12 13 14 15 16 17 18 19 20 21 22 23 24 25 26 27 28 29 30 31 32 33 34 35 36 37 38 39 40 41 42 43 44 45 46 47 48 49 50
669
ASUS43 KOAX 111910
RWRNE

WEATHER ROUNDUP FOR NEBRASKA
NATIONAL WEATHER SERVICE OMAHA NE
100 PM CST THU FEB 11 2016

NOTES: SATELLITE DATA IS BEING USED TO AUGMENT CLOUD COVER ABOVE
       12000 FEET.
       "FAIR" INDICATES FEW OR NO CLOUDS BELOW 12,000 FEET WITH NO
       SIGNIFICANT WEATHER AND/OR OBSTRUCTIONS TO VISIBILITY.

  * THESE STATIONS DO NOT REPORT WEATHER SUCH AS RAIN...SNOW OR FOG.

NEZ001>004-019>022-054>056-112000-
NEBRASKA PANHANDLE

CITY           SKY/WX    TMP DP  RH WIND       PRES   REMARKS
SCOTTSBLUFF    CLOUDY    58  27  30 NW17      30.11S
ALLIANCE       SUNNY     46  33  60 W13       30.07S
CHADRON        SUNNY     56  30  37 W18G25    30.05F
KIMBALL        CLOUDY    54  26  34 NW17G30   30.12S
SIDNEY         CLOUDY    51  30  44 NW14      30.11S
$$

NEZ057>060-069>072-079>082-112000-
SOUTHWEST NEBRASKA

CITY           SKY/WX    TMP DP  RH WIND       PRES   REMARKS
NORTH PLATTE   CLOUDY    36  29  75 S7        30.06F WCI  30
IMPERIAL       SUNNY     51  29  42 W7        30.07F
LEXINGTON      CLOUDY    32  28  86 S9        30.11S WCI  24
MCCOOK         SUNNY     37  31  78 SE7       30.10F WCI  32
OGALLALA       MOSUNNY   48  30  49 NW14      30.06F
$$

NEZ005>010-023>029-035>040-094-112000-
NORTH CENTRAL NEBRASKA

CITY           SKY/WX    TMP DP  RH WIND       PRES   REMARKS
VALENTINE      MOSUNNY   43  32  65 SW14      29.98F
AINSWORTH      MOSUNNY   39  31  75 S16       30.01F WCI  30
BROKEN BOW     CLOUDY    32  30  92 S10G25    30.08F WCI  24
O`NEILL        FOG       28  26  96 S12       30.09S VSB 3/4 WCI  17
ORD            CLOUDY    28  27  96 S10       30.10F FOG     WCI  19
THEDFORD       CLOUDY    49  33  54 SW8       30.03F
$$

NEZ041-046>049-061>064-073>077-083>087-112000-
SOUTH CENTRAL NEBRASKA

CITY           SKY/WX    TMP DP  RH WIND       PRES   REMARKS
GRAND ISLAND   CLOUDY    27  23  85 S10       30.17F FOG     WCI  17
AURORA         CLOUDY    27  24  87 S9        30.18F WCI  18
HASTINGS       CLOUDY    27  22  81 S9        30.17F WCI  18
HEBRON         CLOUDY    26  23  91 SE7       30.22F FOG     WCI  18
HOLDREGE       CLOUDY    31  28  90 S17       30.10F WCI  19
KEARNEY *      CLOUDY    28  27  93 S14       30.12F WCI  17
YORK           CLOUDY    25  23  93 S7        30.20F WCI  17
$$

NEZ011>018-030>034-042>045-112000-
NORTHEAST NEBRASKA

CITY           SKY/WX    TMP DP  RH WIND       PRES   REMARKS
NORFOLK        CLOUDY    23  18  81 S14       30.16F WCI  11
ALBION         CLOUDY    25  22  87 S13       30.13F FOG     WCI  14
BLAIR          CLOUDY    21  12  67 SE6       30.24F WCI  13
COLUMBUS *     CLOUDY    23  10  58 SE9G16    30.20F WCI  13
FREMONT        FLURRIES  21  13  72 S10       30.23F WCI  10
TEKAMAH        CLOUDY    18   9  68 SE10      30.25F WCI   6
WAYNE          LGT SNOW  19  15  83 S15       30.18F WCI   5
$$

NEZ050>053-065>068-078-088>093-112000-
SOUTHEAST NEBRASKA

CITY           SKY/WX    TMP DP  RH WIND       PRES   REMARKS
LINCOLN        CLOUDY    25  19  78 S8        30.26F WCI  16
OMAHA EPPLEY   CLOUDY    21  10  62 S9        30.27F WCI  11
BEATRICE       CLOUDY    25  21  85 S7        30.24F WCI  17
FALLS CITY     MOSUNNY   32  19  58 VRB7      30.26F WCI  26
NEBRASKA CITY  CLOUDY    28  18  65 S9        30.25F WCI  19
PLATTSMOUTH    CLOUDY    25  16  67 SE8       30.24F WCI  16
$$

NEZ044-045-051>053-067-112000-
OMAHA AREA

CITY           SKY/WX    TMP DP  RH WIND       PRES   REMARKS
OMAHA EPPLEY   CLOUDY    21  10  62 S9        30.27F WCI  11
BLAIR          CLOUDY    21  12  67 SE6       30.24F WCI  13
FREMONT        FLURRIES  21  13  72 S10       30.23F WCI  10
MILLARD        CLOUDY    22  11  63 SE6       30.26F WCI  15
OFFUTT AFB     CLOUDY    23  12  62 SE9       30.25F WCI  13
PLATTSMOUTH    CLOUDY    25  16  67 SE8       30.24F WCI  16
WAHOO          MOCLDY    23  17  79 S10       30.24F WCI  12
$$




USA.gov is the U.S. government's official web portal to all federal, state and local government web resources and services.